Dewpoint
49 52 52 46 29 27 15 17 33 34 33 38 34 34 33 32 31 35 64 66 67 66 68 68 72 72 72 72 72 71 71 71 71 70 71 69 67 66 66 66 65 64 63 63 67 66 66 65 65
49 50 48 39 23 10 8 28 30 34 36 35 33 32 32 34 53 55 62 63 67 67 69 66 72 72 72 72 72 72 71 71 71 71 70 68 67 67 67 66 65 66 65 65 65 63 62 65 65
48 47 39 31 17 10 8 25 32 35 31 31 30 29 35 38 41 51 57 63 67 67 69 67 71 71 71 71 71 71 71 71 70 69 69 68 68 69 67 67 67 67 66 65 63 62 64 65 64
46 45 38 25 15 21 22 29 35 32 30 27 26 27 36 32 37 49 61 66 67 67 68 70 72 71 71 72 71 71 70 70 70 69 69 69 69 69 68 68 69 68 67 65 63 66 64 64 64
42 39 26 19 19 26 31 34 33 30 29 28 26 26 31 31 36 49 64 66 68 68 67 68 71 71 70 71 71 70 70 70 70 69 69 69 69 69 68 68 69 67 67 66 66 65 64 64 65
36 31 15 9 15 25 29 34 34 31 29 25 23 25 28 32 33 39 60 65 67 68 68 67 69 70 70 70 70 71 70 70 70 70 70 69 69 69 69 68 67 67 67 67 67 64 65 65 64
27 18 8 11 12 17 21 28 26 24 26 23 24 21 27 30 34 38 43 63 65 68 68 66 67 68 70 70 70 70 70 70 70 70 69 69 68 68 69 67 67 66 66 67 66 64 65 65 64
31 20 17 15 12 15 28 27 26 24 20 26 24 15 20 32 32 36 38 42 61 65 66 68 66 66 66 65 69 69 70 69 70 69 69 69 68 68 67 67 67 67 66 65 66 64 64 65 65
36 11 10 13 18 21 28 25 28 29 27 25 25 24 25 28 30 34 37 38 40 51 63 65 67 67 66 65 65 68 67 68 69 69 69 68 66 66 67 66 67 68 67 67 66 65 65 65 64
22 12 13 24 27 24 27 27 26 23 22 21 23 25 26 26 27 30 33 35 36 38 43 60 64 66 67 65 65 64 64 64 63 64 65 66 64 64 65 66 66 67 66 66 65 64 66 64 58
27 16 22 26 29 30 27 26 26 22 19 19 16 15 18 25 25 27 29 32 35 36 38 42 60 64 65 67 66 65 68 66 63 61 63 64 64 64 66 67 66 65 65 60 62 61 59 58 57
23 29 28 29 31 30 26 26 24 24 19 19 21 23 24 25 26 27 28 30 32 37 37 39 50 62 64 65 64 64 65 64 63 64 63 64 64 65 65 66 65 64 63 60 56 54 55 57 58
21 26 29 29 30 29 28 26 25 24 25 24 25 27 28 29 29 30 31 31 32 35 37 38 44 58 63 64 63 63 64 66 65 64 63 64 63 64 65 66 66 65 64 62 58 56 57 59 57
28 29 28 29 29 30 27 24 28 22 27 27 28 29 29 30 30 31 33 33 32 32 35 39 41 50 61 63 63 61 61 64 65 65 65 65 65 65 65 64 65 64 64 63 61 58 57 58 57
31 25 25 28 30 29 33 25 27 26 27 27 26 26 28 30 31 32 33 33 34 33 34 35 38 46 57 61 63 62 60 60 63 65 66 65 65 65 64 64 64 64 63 63 63 60 59 57 57
25 24 17 24 28 31 29 14 22 25 27 26 25 27 29 30 31 31 33 34 34 36 36 36 36 41 52 59 62 62 61 58 59 60 60 61 64 65 65 63 63 64 64 64 63 62 61 61 58
22 17 22 21 28 28 29 21 25 27 26 27 27 27 28 30 33 34 35 35 34 35 36 36 37 39 50 57 62 62 62 61 59 59 61 61 59 61 63 63 63 63 64 64 63 62 62 60 59
16 19 19 19 23 25 24 24 25 28 28 28 29 30 31 32 34 37 38 37 37 36 37 37 36 37 41 52 59 62 61 61 61 59 58 59 60 58 59 60 62 63 64 64 64 62 62 61 59
24 22 21 21 24 25 25 26 26 27 29 29 30 33 33 36 38 40 39 40 39 39 38 37 36 35 38 44 53 58 59 60 61 60 59 58 58 59 60 60 61 63 63 63 63 63 61 61 61
27 23 20 23 26 27 26 25 28 29 29 32 34 35 36 37 39 40 40 40 40 39 38 38 37 36 38 42 49 54 57 58 58 59 60 59 58 59 60 60 61 62 63 63 63 62 61 60 60
25 23 23 25 27 28 28 27 25 27 32 34 35 37 38 39 40 40 39 39 39 40 40 38 37 38 38 42 47 56 58 58 58 58 58 59 59 60 60 60 61 62 63 62 62 61 61 58 59
24 27 28 28 28 25 29 24 27 30 31 35 37 39 40 43 44 44 44 41 42 42 43 44 42 39 40 44 49 53 56 56 56 57 58 59 60 60 60 61 61 62 62 62 61 62 61 59 57
25 30 29 29 28 29 27 27 27 32 33 35 38 40 43 43 43 43 46 46 45 44 45 46 44 42 43 46 50 53 56 56 56 58 57 59 59 60 61 62 62 61 61 61 61 61 59 59 57
29 30 31 31 30 24 26 28 29 31 33 35 38 40 41 42 42 41 43 46 48 45 48 48 44 43 45 48 51 53 54 56 56 57 58 59 59 60 61 61 61 61 61 61 61 60 59 58 57
32 30 25 23 23 22 28 28 30 33 35 37 37 39 40 42 40 40 42 44 48 49 50 51 51 48 49 51 52 53 56 56 56 56 57 58 58 59 60 61 61 60 60 60 59 59 58 58 57
30 30 25 19 20 22 28 27 32 33 36 38 39 39 39 40 40 41 43 48 49 50 51 51 52 50 52 53 55 56 57 57 57 57 58 58 58 59 60 60 60 60 60 59 59 59 59 59 58
34 30 34 28 29 25 26 32 34 34 36 37 38 39 38 39 40 41 43 45 46 48 49 52 53 53 53 54 55 56 55 57 57 57 58 58 59 59 60 60 60 60 60 59 59 59 58 58 58
36 37 29 30 22 20 24 27 27 31 34 36 37 37 37 39 40 41 42 44 45 46 46 47 48 49 50 50 51 51 50 53 57 57 57 57 57 57 56 58 59 59 59 59 59 58 59 58 58
34 32 33 32 30 22 20 26 35 34 36 36 34 35 35 37 38 39 41 42 43 44 44 44 45 45 46 46 47 48 47 47 48 49 49 49 50 50 50 51 51 52 53 55 57 57 57 57 57
35 33 31 27 28 28 26 26 36 35 36 36 36 34 35 36 36 37 39 40 41 42 43 43 43 43 44 45 44 44 45 45 45 45 45 46 46 46 46 46 45 46 47 47 48 48 48 49 49
Wind_Speed
2 1 2 5 7 5 9 4 1 6 7 4 0 3 1 5 2 2 6 6 12 5 12 17 17 16 15 15 15 14 14 14 13 12 14 12 13 14 15 13 14 13 11 10 12 13 14 14 12
2 4 3 4 5 9 6 4 8 4 4 1 2 4 3 4 5 4 2 17 8 5 11 16 17 17 16 16 14 13 14 13 13 13 12 12 13 15 14 15 15 14 13 11 12 11 11 12 10
2 1 7 6 5 8 2 3 6 4 3 1 5 1 1 2 5 8 12 15 6 8 10 11 14 16 16 15 15 15 14 13 11 12 13 12 14 15 15 15 13 14 15 12 12 11 10 9 8
3 4 2 6 9 3 2 6 6 6 3 3 2 5 5 6 9 11 15 11 5 7 11 12 11 14 15 15 15 15 16 15 13 12 14 15 14 13 15 12 15 15 15 14 12 11 8 7 8
2 2 5 5 7 2 4 6 7 6 3 1 2 2 2 4 9 14 11 10 5 6 9 12 10 10 13 14 14 13 12 14 14 12 11 14 13 12 13 14 15 16 15 13 13 10 7 6 8
4 1 5 10 6 5 4 4 4 6 3 2 3 3 2 3 11 15 13 9 9 3 8 10 12 10 10 12 14 13 13 12 11 11 12 12 12 10 14 17 16 16 15 13 12 10 7 6 7
4 4 4 3 3 5 3 1 9 7 8 6 2 3 4 6 8 12 14 10 6 7 4 8 10 12 10 9 10 12 13 13 11 11 11 11 11 10 15 18 17 16 15 14 12 10 8 6 7
2 1 4 5 4 4 3 2 1 4 6 4 2 6 6 4 9 12 10 10 8 5 4 3 9 9 11 12 11 12 11 13 13 12 12 10 11 12 15 17 16 15 15 14 12 10 9 6 4
1 4 6 2 3 4 2 3 2 3 7 4 5 8 4 8 11 12 12 10 9 7 4 4 3 6 11 11 11 12 14 13 12 12 13 11 13 14 15 16 17 14 13 12 11 11 9 6 4
4 6 4 1 1 0 1 3 3 4 6 11 13 14 15 14 12 13 14 14 12 10 8 6 4 7 8 11 11 13 12 11 13 14 14 15 14 13 13 14 15 14 13 11 10 10 9 9 9
2 4 4 2 1 3 4 8 4 7 11 17 15 13 12 12 15 18 18 15 15 14 12 8 8 8 8 9 10 12 10 11 12 14 14 14 12 12 13 12 14 13 12 12 12 12 13 13 9
4 2 2 2 1 3 6 6 10 13 19 13 15 17 18 20 20 19 20 20 18 16 15 12 10 10 11 11 11 11 11 11 12 14 16 15 14 12 13 14 15 15 12 12 12 12 12 11 11
4 4 3 4 6 10 12 19 17 21 22 20 19 18 20 21 21 18 18 19 18 18 18 14 11 11 11 12 11 11 10 10 12 13 14 15 15 15 14 14 13 13 13 13 12 12 11 11 11
2 3 5 5 5 7 9 12 4 8 5 10 9 14 16 17 20 18 17 20 20 18 19 16 13 12 12 14 14 13 12 11 9 11 12 15 14 14 15 16 17 16 15 14 14 14 13 12 11
1 3 3 3 2 3 3 13 13 16 9 13 12 15 17 18 19 22 21 21 19 18 18 18 15 14 14 16 15 14 12 11 10 11 13 13 12 12 14 15 15 17 17 15 14 14 12 12 10
1 1 3 3 2 1 2 11 3 3 10 16 24 23 23 25 24 24 22 22 22 20 19 19 16 15 15 15 16 14 13 13 12 10 8 11 11 13 13 10 13 13 13 15 16 14 14 13 13
1 3 2 5 1 2 5 11 9 14 25 26 25 25 25 25 23 21 21 21 21 21 22 21 19 19 16 15 14 15 15 14 13 12 10 10 11 12 13 15 14 15 13 16 16 15 13 15 13
3 2 4 7 1 9 17 27 22 22 24 26 25 24 24 24 22 20 20 20 20 21 20 20 19 19 18 14 14 11 12 15 15 15 14 14 12 13 14 14 16 17 15 16 15 20 16 14 16
3 2 7 10 8 12 13 23 24 24 23 21 17 16 17 18 17 18 18 16 18 19 19 19 19 19 17 16 15 14 15 17 17 16 17 16 15 14 15 15 17 17 17 18 19 18 21 13 13
0 5 7 10 4 8 19 31 26 15 8 11 14 16 19 22 23 21 16 14 15 16 17 19 19 19 19 17 15 15 17 18 17 15 15 17 17 17 16 16 17 19 16 19 19 20 14 13 14
4 7 5 6 14 14 16 14 2 1 8 10 16 17 17 18 21 21 19 15 14 15 17 19 20 20 20 18 17 14 11 11 14 16 15 16 16 16 17 19 17 18 15 16 18 21 21 18 15
4 2 6 8 11 6 9 11 9 8 11 23 24 23 20 19 19 18 20 19 16 17 17 18 20 21 20 18 18 19 17 17 16 15 13 12 15 16 17 18 17 15 14 17 17 18 18 18 21
2 2 10 13 14 14 6 7 6 11 15 24 27 26 15 15 18 20 21 19 19 16 14 15 17 20 19 18 21 19 18 14 14 11 13 14 12 14 15 16 15 16 15 14 16 17 16 14 14
10 11 10 3 2 6 7 8 1 8 16 20 22 22 21 22 21 22 20 20 16 13 11 12 15 17 18 19 21 20 19 17 16 12 12 12 10 11 15 17 17 16 15 15 14 14 16 16 15
4 5 4 2 4 5 6 8 5 14 14 15 18 20 21 19 19 25 22 17 17 12 12 11 14 17 18 21 20 21 21 20 19 18 15 14 11 11 13 14 15 13 15 18 17 18 13 14 15
5 4 3 5 4 9 4 5 1 13 11 14 14 19 21 20 22 21 19 9 10 10 11 8 11 17 17 18 19 19 20 16 16 16 15 15 13 12 14 15 16 17 17 16 14 12 9 9 13
3 5 2 5 7 6 2 1 3 15 14 18 17 17 21 25 24 20 20 14 16 16 14 11 0 3 8 18 18 10 6 15 15 14 15 13 15 12 12 13 12 12 12 13 13 12 15 13 11
7 1 5 5 4 5 2 1 9 13 17 16 14 17 18 19 23 21 18 18 17 17 18 19 17 16 15 16 12 11 11 9 5 6 6 5 6 9 6 4 8 9 7 9 10 10 10 10 8
6 4 6 3 4 4 5 0 3 8 9 12 10 13 12 12 16 18 20 20 21 24 23 21 22 18 19 18 11 17 16 12 21 18 16 16 17 13 16 14 14 13 12 9 3 4 5 11 10
4 5 4 4 2 4 4 4 6 6 7 7 11 9 8 8 11 14 17 19 21 19 18 22 22 19 19 16 13 20 16 16 20 19 17 14 18 16 13 13 15 14 13 12 12 11 10 8 7
Wind_Direction
254 180 180 183 190 230 222 213 128 158 181 176 236 249 349 347 312 32 52 30 349 204 175 173 162 165 160 154 152 157 158 159 156 165 154 166 164 162 161 163 162 153 154 146 124 125 124 114 115
190 163 177 157 214 205 190 153 189 129 109 281 207 231 224 136 38 1 207 348 328 190 178 182 168 171 169 161 158 158 161 163 163 160 156 171 171 168 170 170 171 161 146 147 127 129 130 112 124
174 238 177 192 217 215 179 162 145 115 55 149 173 294 352 11 353 345 345 328 283 191 182 178 164 175 173 167 167 169 169 166 172 168 169 178 182 182 176 179 175 160 147 139 130 142 132 138 139
182 162 133 221 210 207 92 129 150 144 110 62 21 152 106 45 341 334 333 325 245 193 191 150 172 178 176 171 175 175 177 174 184 188 181 182 192 196 181 173 154 148 145 136 147 137 150 163 168
83 175 193 216 211 148 161 129 158 155 146 165 0 134 111 43 356 359 353 346 290 196 194 177 174 180 185 183 184 186 189 184 184 201 192 188 199 201 186 170 148 144 145 150 145 152 164 158 167
136 187 192 212 177 170 188 172 203 220 203 200 229 234 150 99 19 5 2 6 336 224 205 192 186 190 185 191 194 193 197 202 197 205 201 201 201 204 189 172 150 150 151 156 157 165 173 172 156
167 186 203 205 171 181 160 272 227 247 245 235 335 237 152 183 20 1 10 8 14 2 256 212 201 197 194 195 198 203 208 207 208 213 211 210 206 196 179 165 155 158 163 166 172 178 183 186 182
97 195 185 213 209 148 111 164 315 248 225 327 263 238 205 124 357 343 351 14 13 23 5 341 224 213 211 208 209 206 214 213 206 218 219 209 203 195 186 169 164 165 170 179 178 188 192 188 196
157 212 226 241 205 119 123 178 123 296 273 252 235 257 299 319 325 330 338 344 357 7 356 330 255 255 214 225 208 210 220 221 210 212 216 208 212 194 182 194 168 174 178 182 184 191 191 185 185
180 207 209 17 333 82 286 296 315 277 241 250 254 259 269 293 303 313 317 312 314 320 334 313 263 252 248 214 223 221 217 216 218 214 211 218 218 206 198 191 176 180 182 185 189 191 187 198 207
164 217 157 170 271 328 291 276 254 267 265 253 265 279 288 286 294 297 294 287 289 293 295 293 272 232 230 228 223 220 206 208 218 218 212 215 217 214 201 189 186 191 191 199 196 194 209 213 226
163 199 176 185 178 295 281 293 262 249 251 287 279 280 281 282 285 283 282 280 281 279 275 278 276 243 227 226 226 220 212 210 217 212 214 209 206 213 210 198 193 195 185 213 206 209 213 218 224
197 178 228 241 270 275 278 268 271 268 264 272 272 272 269 270 272 272 270 274 272 268 266 260 260 255 242 228 223 217 217 211 213 219 215 217 211 208 206 206 199 198 195 201 209 216 216 222 230
140 235 266 280 265 261 271 272 319 265 276 276 269 267 267 266 267 272 268 267 264 262 263 260 250 247 238 233 231 223 212 210 209 212 219 217 222 215 209 214 204 205 203 199 207 210 215 221 227
131 272 268 221 201 244 272 271 239 262 282 290 284 282 278 272 264 262 277 266 260 263 263 262 254 245 235 234 232 225 216 205 201 207 205 207 217 228 211 221 223 217 211 203 203 213 212 217 228
192 256 246 172 284 112 232 261 239 289 293 285 294 289 279 278 272 268 272 259 255 256 255 257 252 246 237 230 225 221 218 212 203 203 206 211 208 212 219 224 227 226 230 217 202 205 215 208 212
92 251 267 291 247 252 229 281 276 293 294 292 288 286 283 280 279 273 267 258 251 253 252 251 245 242 236 237 224 220 219 221 213 208 218 225 227 221 221 223 231 222 218 219 215 213 198 214 214
173 237 270 273 297 274 278 274 282 282 286 286 292 292 287 283 285 288 279 263 254 253 252 248 244 237 236 233 227 220 219 223 226 222 221 226 234 235 233 235 231 231 217 216 213 219 215 220 227
100 292 289 283 296 292 279 286 289 287 288 292 300 301 301 295 301 295 285 266 255 250 245 240 239 232 231 226 222 220 215 221 224 229 233 229 235 236 235 235 239 230 222 216 212 209 216 213 215
58 296 299 289 283 294 302 298 301 294 288 317 312 312 309 303 301 295 285 266 249 244 238 238 237 235 229 227 224 224 223 229 227 225 229 229 232 233 233 234 236 233 227 221 214 209 203 207 199
258 267 311 295 318 292 308 293 4 12 321 328 329 321 312 310 310 301 289 268 249 237 236 236 236 230 232 228 225 221 226 227 219 223 228 228 232 232 231 235 236 237 222 218 211 212 210 214 205
304 234 280 304 324 308 355 293 329 345 339 346 337 334 330 328 325 311 294 280 260 249 239 245 242 227 226 223 224 215 214 215 220 223 221 228 234 238 237 238 235 226 221 223 206 207 212 214 207
320 298 288 288 285 305 274 243 286 355 340 336 333 320 329 338 334 324 308 288 268 253 246 241 232 221 219 215 216 216 219 229 232 225 233 234 233 235 236 231 225 223 220 227 218 204 205 212 211
299 306 299 286 273 270 242 216 225 6 332 330 334 344 341 335 335 323 311 306 270 249 244 235 226 217 213 213 211 218 212 215 224 221 233 232 230 234 236 228 231 227 220 222 212 202 203 203 213
242 319 315 285 228 268 163 220 287 356 344 331 338 341 336 331 339 333 322 301 285 255 242 233 226 222 215 208 207 212 213 213 219 219 218 222 221 222 232 228 227 212 218 223 211 210 198 208 216
257 277 296 290 272 304 206 248 356 1 359 345 346 350 348 355 355 338 338 346 3 305 259 232 227 227 199 199 205 206 213 217 216 215 217 220 218 227 242 227 221 219 224 219 200 183 200 208 231
147 215 104 257 241 259 234 340 211 357 358 345 344 351 355 359 352 357 358 22 30 36 51 55 198 262 222 215 217 199 213 224 216 216 227 226 228 238 237 222 202 204 200 195 203 207 208 213 207
223 18 227 206 281 295 234 35 320 335 331 328 345 358 1 357 356 8 15 33 40 46 45 55 57 63 63 61 69 71 50 19 162 201 204 134 92 96 58 35 149 157 167 176 171 175 175 188 202
185 219 212 256 251 288 309 8 239 294 308 312 338 356 3 2 2 10 19 34 41 43 46 45 53 56 59 54 59 74 59 35 77 79 74 75 70 59 66 61 56 67 66 53 128 138 182 204 213
230 236 236 255 180 241 282 261 211 227 256 277 309 346 6 15 21 32 38 38 41 44 51 48 41 42 50 46 38 59 62 56 67 69 66 70 75 59 57 67 65 59 60 54 62 64 58 51 49